[[{"header":{"parameterUnit":"m.s-1","parameterCategory":1,"la1":30.2991,"la2":30.254,"lo1":-89.0895,"lo2":-89.0444,"dy":0.0017,"dx":0.0017,"nx":28,"ny":28,"refTime":"2024-10-07T03:00:00:Z","depth":0,"parameterNumber":2,"parameterNumberName":"U-component_of_WINDS"},"data":[0,0,0,0,0,0,0,0,0,0,0,0,0,0,0,0,0,0,0,0,0,0,0,0,0,0,0,0,0,0,0,0,0,0,0,0,0,0,0,0,0,0,0,0,0,0,0,0,0,0,0,0,0,0,0,0,0,0,-0.3596,-0.3595,0,-0.3565,-0.3565,-0.3565,-0.3564,-0.3564,-0.3564,-0.3565,-0.3532,-0.3531,-0.353,0,0,0,0,0,0,0,0,0,0,0,0,0,-0.365,-0.3649,-0.3596,-0.3595,-0.3595,-0.3565,-0.3565,-0.3565,-0.3564,-0.3564,-0.3564,-0.3565,-0.3532,-0.3531,-0.3529,0,0,0,0,0,0,0,0,0,0,0,0,0,-0.3624,-0.3649,-0.3596,-0.3591,-0.359,-0.3566,-0.3565,-0.3564,-0.3563,-0.3564,-0.3565,-0.3565,-0.3533,-0.3531,-0.3529,-0.3507,0,0,-0.3524,-0.3523,0,0,0,0,0,0,0,0,-0.3625,-0.3622,-0.3592,-0.3591,-0.359,-0.3569,-0.3572,-0.3545,-0.3563,-0.3573,-0.3565,-0.3565,-0.3544,-0.3541,-0.3534,-0.3505,-0.3504,-0.3524,-0.3522,-0.3522,-0.3521,0,0,0,0,0,0,0,-0.3627,-0.3623,-0.3584,-0.3591,-0.359,-0.3589,-0.3586,-0.3567,-0.3556,-0.3573,-0.3572,-0.3569,-0.3543,-0.3536,-0.3533,-0.3504,-0.3524,-0.3522,-0.3521,-0.352,-0.3454,-0.3453,0,0,0,0,0,0,-0.363,-0.3624,-0.3585,-0.3583,-0.3609,-0.3588,-0.3584,-0.3575,-0.3556,-0.3554,-0.3569,-0.3569,-0.3539,-0.3535,-0.3532,-0.3504,-0.3522,-0.352,-0.3519,-0.3455,-0.3454,-0.3453,0,0,0,0,0,0,-0.3631,-0.3626,-0.3586,-0.3603,-0.3598,-0.3586,-0.3576,-0.3574,-0.3567,-0.3553,-0.3551,-0.3563,-0.3539,-0.3535,-0.3513,-0.3503,-0.3519,-0.3517,-0.3456,-0.3455,-0.3454,-0.3449,0,0,0,0,0,0,-0.3633,-0.3627,-0.3619,-0.3603,-0.3597,-0.3568,-0.3575,-0.3573,-0.3564,-0.3564,-0.3547,-0.3545,-0.3539,-0.3516,-0.3511,-0.3501,-0.3516,-0.3456,-0.3455,-0.3454,-0.345,-0.3447,-0.3446,0,0,0,0,0,-0.3635,-0.3618,-0.3619,-0.3614,-0.3587,-0.3567,-0.3564,-0.3558,-0.3563,-0.3554,-0.3545,-0.3546,-0.3505,-0.3514,-0.3509,-0.3497,-0.3457,-0.3455,-0.3454,-0.345,-0.3448,-0.3446,0,0,0,0,0,0,-0.3633,-0.3616,-0.3616,-0.3595,-0.3582,-0.3567,-0.3556,-0.3556,-0.3541,-0.3542,-0.3535,-0.3531,-0.3509,-0.3501,-0.3511,-0.3474,-0.3481,-0.3479,-0.348,-0.3478,-0.3476,-0.3478,-0.3515,0,0,0,0,0,-0.363,-0.3616,-0.3602,-0.3584,-0.3578,-0.3568,-0.3559,-0.3556,-0.3543,-0.3537,-0.3527,-0.3514,-0.3498,-0.3487,-0.3472,-0.3448,-0.3444,-0.3438,-0.3436,-0.3435,-0.3432,-0.3418,-0.3415,-0.3448,-0.3448,-0.3448,0,0,-0.3623,-0.3613,-0.3604,-0.3583,-0.3574,-0.3558,-0.3564,-0.3548,-0.3536,-0.3535,-0.3514,-0.3506,-0.349,-0.3467,-0.3457,-0.346,-0.3422,-0.3433,-0.3432,-0.343,-0.3417,-0.3414,-0.3411,-0.3447,-0.3448,-0.3448,0,0,-0.3604,-0.3595,-0.3579,-0.3569,-0.3554,-0.3548,-0.3544,-0.3528,-0.3523,-0.3502,-0.35,-0.3486,-0.3459,-0.3448,-0.3439,-0.3415,-0.3414,-0.341,-0.34,-0.3387,-0.3384,-0.3382,-0.3372,-0.3369,-0.3408,-0.3408,-0.3408,0,-0.3598,-0.3576,-0.3571,-0.3554,-0.3545,-0.3543,-0.3526,-0.3517,-0.3497,-0.349,-0.3494,-0.346,-0.345,-0.3424,-0.3418,-0.3411,-0.3405,-0.3412,-0.3385,-0.3382,-0.338,-0.3371,-0.3368,-0.3407,-0.3407,-0.3408,-0.3408,0,-0.3569,-0.3553,-0.3542,-0.3524,-0.3513,-0.3497,-0.3488,-0.3477,-0.3475,-0.3467,-0.3446,-0.3433,-0.3415,-0.3408,-0.3405,-0.3382,-0.3384,-0.3387,-0.3394,-0.3377,-0.3368,-0.3365,-0.3407,-0.3407,-0.3407,-0.3407,0,0,-0.3547,-0.3526,-0.3522,-0.3514,-0.3497,-0.3485,-0.3468,-0.345,-0.3441,-0.3428,-0.3413,-0.339,-0.3392,-0.3381,-0.3377,-0.3365,-0.3346,-0.3369,-0.3369,-0.3365,-0.3319,-0.3317,-0.3313,-0.3346,-0.3345,-0.3345,-0.332,0,-0.3526,-0.3496,-0.3491,-0.3465,-0.345,-0.3448,-0.3433,-0.3421,-0.3414,-0.3399,-0.3391,-0.3375,-0.3379,-0.3372,-0.3361,-0.3351,-0.3337,-0.3353,-0.3331,-0.333,-0.3335,-0.3309,-0.3307,-0.3284,-0.3317,-0.3316,-0.3316,0,-0.3497,-0.3483,-0.3456,-0.3441,-0.3434,-0.3421,-0.3405,-0.3391,-0.3377,-0.3372,-0.3361,-0.3357,-0.3339,-0.3347,-0.3321,-0.3332,-0.3322,-0.3316,-0.3315,-0.3313,-0.3322,-0.3305,-0.3277,-0.3273,-0.331,-0.3311,-0.3311,0,-0.3483,-0.3458,-0.3438,-0.3431,-0.3413,-0.3404,-0.3396,-0.3382,-0.3372,-0.3357,-0.335,-0.3333,-0.3324,-0.331,-0.3302,-0.3309,-0.3277,-0.3284,-0.3272,-0.3272,-0.3265,-0.3265,-0.3234,-0.3259,-0.3259,-0.3259,-0.3259,0,-0.346,-0.3443,-0.3432,-0.342,-0.3401,-0.3394,-0.3375,-0.3367,-0.3355,-0.334,-0.3337,-0.3324,-0.3314,-0.3299,-0.3292,-0.3271,-0.3267,-0.3262,-0.3261,-0.3263,-0.3263,-0.3256,-0.3257,-0.3258,-0.3259,-0.3259,-0.3259,0,-0.3441,-0.3434,-0.3412,-0.3397,-0.3392,-0.3379,-0.3365,-0.3353,-0.3346,-0.3327,-0.3323,-0.3311,-0.3293,-0.3283,-0.3261,-0.3256,-0.3232,-0.3232,-0.3237,-0.3237,-0.3225,-0.3226,-0.3188,-0.3182,-0.3211,-0.3211,-0.3211,0,-0.3427,-0.3414,-0.3397,-0.3388,-0.338,-0.3364,-0.3354,-0.3347,-0.3336,-0.3318,-0.3308,-0.329,-0.3275,-0.3246,-0.3234,-0.3217,-0.3216,-0.3204,-0.3213,-0.3215,-0.3215,-0.3216,-0.3214,-0.3202,-0.3202,-0.3201,-0.3201,0,-0.3401,-0.3398,-0.3384,-0.3368,-0.3356,-0.3342,-0.3329,-0.3322,-0.3312,-0.33,-0.3282,-0.327,-0.3247,-0.3229,-0.321,-0.3201,-0.3199,-0.3198,-0.3194,-0.3196,-0.3199,-0.3197,-0.3232,-0.3199,-0.3199,-0.3199,-0.32,-0.32,-0.3384,-0.3372,-0.3359,-0.3343,-0.3332,-0.332,-0.3308,-0.3299,-0.3284,-0.3265,-0.3261,-0.3242,-0.3227,-0.3202,-0.3192,-0.3176,-0.3178,-0.3173,-0.3171,-0.317,-0.3169,-0.3202,-0.3173,-0.3173,-0.3173,-0.3173,-0.3173,0,-0.3358,-0.3349,-0.3335,-0.3317,-0.3304,-0.3304,-0.3289,-0.3278,-0.3261,-0.3248,-0.3234,-0.3212,-0.3194,-0.3182,-0.3163,-0.3153,-0.3152,-0.3148,-0.3149,-0.3147,-0.3168,-0.3173,-0.315,-0.315,-0.315,-0.315,-0.315,-0.315,-0.3343,-0.3323,-0.3318,-0.3293,-0.3284,-0.3265,-0.3257,-0.3245,-0.3235,-0.3211,-0.3196,-0.3189,-0.3175,-0.3156,-0.3139,-0.3136,-0.3129,-0.3126,-0.3122,-0.3143,-0.3145,-0.3147,-0.3152,-0.3124,-0.3124,-0.3102,-0.3101,-0.3101]},{"header":{"parameterUnit":"m.s-1","parameterCategory":1,"la1":30.2991,"la2":30.254,"lo1":-89.0895,"lo2":-89.0444,"dy":0.0017,"dx":0.0017,"nx":28,"ny":28,"refTime":"2024-10-07T03:00:00:Z","depth":0,"parameterNumber":3,"parameterNumberName":"V-component_of_WINDS"},"data":[0,0,0,0,0,0,0,0,0,0,0,0,0,0,0,0,0,0,0,0,0,0,0,0,0,0,0,0,0,0,0,0,0,0,0,0,0,0,0,0,0,0,0,0,0,0,0,0,0,0,0,0,0,0,0,0,0,0,-4.4782,-4.4782,0,-4.4807,-4.4807,-4.4807,-4.4778,-4.4777,-4.4776,-4.4775,-4.4798,-4.48,-4.4801,0,0,0,0,0,0,0,0,0,0,0,0,0,-4.4707,-4.4709,-4.4782,-4.4782,-4.4782,-4.4807,-4.4807,-4.4808,-4.4778,-4.4777,-4.4776,-4.4775,-4.4798,-4.4799,-4.4801,0,0,0,0,0,0,0,0,0,0,0,0,0,-4.4737,-4.4709,-4.4781,-4.4771,-4.477,-4.4807,-4.4807,-4.4808,-4.4779,-4.4777,-4.4775,-4.4774,-4.4797,-4.4799,-4.4802,-4.4849,0,0,-4.4809,-4.481,0,0,0,0,0,0,0,0,-4.4735,-4.4739,-4.4772,-4.4772,-4.4771,-4.4788,-4.4789,-4.4822,-4.4779,-4.4775,-4.4775,-4.4773,-4.4796,-4.4798,-4.4806,-4.485,-4.4851,-4.4809,-4.4811,-4.4812,-4.4813,0,0,0,0,0,0,0,-4.4733,-4.4738,-4.4791,-4.4773,-4.4772,-4.4764,-4.4767,-4.4795,-4.4794,-4.4776,-4.4774,-4.4777,-4.4795,-4.4804,-4.4807,-4.4852,-4.4809,-4.4811,-4.4813,-4.4814,-4.494,-4.4941,0,0,0,0,0,0,-4.4733,-4.4737,-4.4791,-4.4792,-4.4749,-4.4767,-4.477,-4.4784,-4.4794,-4.4794,-4.4778,-4.4776,-4.4801,-4.4804,-4.4807,-4.4867,-4.4812,-4.4814,-4.4816,-4.4938,-4.494,-4.4942,0,0,0,0,0,0,-4.4731,-4.4738,-4.479,-4.4764,-4.477,-4.477,-4.4786,-4.4785,-4.4794,-4.4796,-4.4796,-4.4788,-4.48,-4.4804,-4.484,-4.4867,-4.4815,-4.4817,-4.4936,-4.4939,-4.4941,-4.4983,0,0,0,0,0,0,-4.4729,-4.4737,-4.4755,-4.4765,-4.4772,-4.4822,-4.4788,-4.4787,-4.4799,-4.4796,-4.4805,-4.4805,-4.4799,-4.4837,-4.4843,-4.4869,-4.4819,-4.4933,-4.4937,-4.494,-4.498,-4.4987,-4.4994,0,0,0,0,0,-4.4727,-4.4765,-4.4756,-4.4763,-4.4794,-4.4824,-4.4828,-4.4821,-4.4801,-4.482,-4.4821,-4.4805,-4.4863,-4.4841,-4.4847,-4.4875,-4.4932,-4.4936,-4.494,-4.4976,-4.4986,-4.4994,0,0,0,0,0,0,-4.4756,-4.4766,-4.4756,-4.4799,-4.4811,-4.4819,-4.4841,-4.483,-4.4847,-4.4843,-4.4833,-4.4835,-4.4874,-4.4878,-4.4853,-4.4923,-4.4894,-4.49,-4.492,-4.4928,-4.4935,-4.4934,-4.4821,0,0,0,0,0,-4.4768,-4.4792,-4.4798,-4.4835,-4.4842,-4.4841,-4.4853,-4.4848,-4.4859,-4.4864,-4.4868,-4.4879,-4.4901,-4.4914,-4.4934,-4.498,-4.4983,-4.5002,-4.5009,-4.5015,-4.5021,-4.5048,-4.5058,-4.4956,-4.4956,-4.4956,0,0,-4.4792,-4.48,-4.4815,-4.4842,-4.485,-4.4876,-4.4845,-4.4872,-4.4891,-4.4867,-4.4903,-4.4907,-4.4919,-4.4961,-4.498,-4.4965,-4.505,-4.5021,-4.5025,-4.5028,-4.5054,-4.5063,-4.5072,-4.4959,-4.4958,-4.4958,0,0,-4.4849,-4.4857,-4.489,-4.4901,-4.4915,-4.4915,-4.4923,-4.4933,-4.4936,-4.4971,-4.4955,-4.4977,-4.5013,-4.5023,-4.5033,-4.5098,-4.5085,-4.5105,-4.5142,-4.5169,-4.5177,-4.5185,-4.521,-4.5219,-4.511,-4.511,-4.511,0,-4.4877,-4.4915,-4.4908,-4.4938,-4.4951,-4.4933,-4.4967,-4.4977,-4.4996,-4.5006,-4.4989,-4.5037,-4.5043,-4.5089,-4.5106,-4.5114,-4.5124,-4.5104,-4.5177,-4.5184,-4.5191,-4.5215,-4.5224,-4.5112,-4.5112,-4.5112,-4.5112,0,-4.495,-4.4977,-4.5002,-4.5024,-4.504,-4.5071,-4.507,-4.5086,-4.508,-4.5081,-4.5119,-4.5127,-4.5149,-4.5159,-4.5152,-4.5205,-4.5196,-4.5179,-4.5149,-4.5203,-4.5226,-4.5235,-4.5116,-4.5115,-4.5114,-4.5114,0,0,-4.5025,-4.5046,-4.5055,-4.5067,-4.5083,-4.5104,-4.5135,-4.5159,-4.5174,-4.5189,-4.5216,-4.5248,-4.5234,-4.5245,-4.5239,-4.5262,-4.5317,-4.5242,-4.5242,-4.5257,-4.5379,-4.5394,-4.5405,-4.5308,-4.5309,-4.5311,-4.5379,0,-4.5084,-4.5141,-4.5138,-4.5191,-4.5217,-4.5202,-4.5229,-4.5243,-4.5246,-4.5268,-4.527,-4.5295,-4.5272,-4.5279,-4.5302,-4.5305,-4.5341,-4.53,-4.5334,-4.5335,-4.5333,-4.5416,-4.5431,-4.5495,-4.5388,-4.5389,-4.539,0,-4.5161,-4.5182,-4.5238,-4.5254,-4.5265,-4.529,-4.5313,-4.5334,-4.535,-4.535,-4.5365,-4.5356,-4.5389,-4.5359,-4.5404,-4.5377,-4.539,-4.5394,-4.5396,-4.54,-4.5367,-4.5424,-4.5515,-4.5525,-4.5404,-4.5402,-4.5401,0,-4.5213,-4.5254,-4.5295,-4.5305,-4.5323,-4.5342,-4.5351,-4.5364,-4.538,-4.54,-4.541,-4.5432,-4.5445,-4.5463,-4.5461,-4.5438,-4.5508,-4.5477,-4.5511,-4.5511,-4.5527,-4.5526,-4.5623,-4.5533,-4.5532,-4.5532,-4.5532,0,-4.5281,-4.5316,-4.5319,-4.5344,-4.5384,-4.538,-4.542,-4.5426,-4.544,-4.5466,-4.5453,-4.5477,-4.5472,-4.5496,-4.5494,-4.5534,-4.5539,-4.5541,-4.5541,-4.5544,-4.5544,-4.5553,-4.5549,-4.5535,-4.5534,-4.5534,-4.5533,0,-4.5346,-4.5349,-4.5392,-4.5408,-4.5413,-4.5442,-4.5455,-4.5479,-4.5482,-4.5515,-4.5523,-4.5527,-4.5556,-4.5555,-4.5587,-4.5586,-4.5636,-4.5629,-4.5631,-4.563,-4.5665,-4.5663,-4.5773,-4.5788,-4.5686,-4.5687,-4.5688,0,-4.5389,-4.5417,-4.5437,-4.5455,-4.5466,-4.5493,-4.551,-4.5508,-4.5526,-4.5548,-4.5569,-4.5597,-4.562,-4.5666,-4.5672,-4.5697,-4.5692,-4.5729,-4.5695,-4.5699,-4.5695,-4.5694,-4.5698,-4.5736,-4.5737,-4.5738,-4.5738,0,-4.5468,-4.5469,-4.5494,-4.5522,-4.5543,-4.5563,-4.5582,-4.5597,-4.5597,-4.5618,-4.5649,-4.5666,-4.5701,-4.5729,-4.5754,-4.5762,-4.5751,-4.5749,-4.5759,-4.5763,-4.5764,-4.5766,-4.5651,-4.5747,-4.5746,-4.5745,-4.5745,-4.5744,-4.5525,-4.555,-4.557,-4.5599,-4.5614,-4.5633,-4.5658,-4.5665,-4.5691,-4.5721,-4.5717,-4.5752,-4.5769,-4.5801,-4.5812,-4.5839,-4.5826,-4.5839,-4.5843,-4.5847,-4.5852,-4.5759,-4.5843,-4.5843,-4.5843,-4.5843,-4.5842,0,-4.5605,-4.5617,-4.5645,-4.5674,-4.5698,-4.5687,-4.5708,-4.5729,-4.576,-4.5777,-4.5801,-4.5838,-4.5866,-4.5875,-4.5903,-4.5923,-4.5919,-4.5931,-4.593,-4.5933,-4.5861,-4.5851,-4.5934,-4.5934,-4.5934,-4.5934,-4.5934,-4.5934,-4.5649,-4.5693,-4.5697,-4.5748,-4.576,-4.5796,-4.5809,-4.5827,-4.5842,-4.5884,-4.5909,-4.5915,-4.593,-4.5959,-4.5985,-4.5987,-4.5999,-4.6013,-4.6013,-4.5946,-4.5937,-4.5928,-4.5919,-4.6015,-4.6015,-4.6083,-4.6084,-4.6084]}]]